Year,Month,Day,Hour,Minute,Value (Times are PST for temperature in C)
2020,04,12,00,00,4.30
2020,04,12,00,01,4.30
2020,04,12,00,02,4.30
2020,04,12,00,03,4.30
2020,04,12,00,04,4.30
2020,04,12,00,05,4.30
2020,04,12,00,06,4.30
2020,04,12,00,07,4.30
2020,04,12,00,08,4.20
2020,04,12,00,09,4.20
2020,04,12,00,10,4.20
2020,04,12,00,11,4.20
2020,04,12,00,12,4.20
2020,04,12,00,13,4.10
2020,04,12,00,14,4.10
2020,04,12,00,15,4.10
2020,04,12,00,16,4.10
2020,04,12,00,17,4.10
2020,04,12,00,18,4.10
2020,04,12,00,19,4.10
2020,04,12,00,20,4.10
2020,04,12,00,21,4.10
2020,04,12,00,22,4.00
2020,04,12,00,23,4.00
2020,04,12,00,24,4.00
2020,04,12,00,25,4.00
2020,04,12,00,26,4.00
2020,04,12,00,27,3.90
2020,04,12,00,28,3.90
2020,04,12,00,29,3.90
2020,04,12,00,30,3.90
2020,04,12,00,31,3.90
2020,04,12,00,32,3.90
2020,04,12,00,33,3.80
2020,04,12,00,34,3.80
2020,04,12,00,35,3.80
2020,04,12,00,36,3.80
2020,04,12,00,37,3.70
2020,04,12,00,38,3.70
2020,04,12,00,39,3.70
2020,04,12,00,40,3.70
2020,04,12,00,41,3.70
2020,04,12,00,42,3.70
2020,04,12,00,43,3.60
2020,04,12,00,44,3.60
2020,04,12,00,45,3.60
2020,04,12,00,46,3.60
2020,04,12,00,47,3.50
2020,04,12,00,48,3.50
2020,04,12,00,49,3.50
2020,04,12,00,50,3.40
2020,04,12,00,51,3.40
2020,04,12,00,52,3.40
2020,04,12,00,53,3.40
2020,04,12,00,54,3.40
2020,04,12,00,55,3.30
2020,04,12,00,56,3.30
2020,04,12,00,57,3.30
2020,04,12,00,58,3.30
2020,04,12,00,59,3.20
2020,04,12,01,00,3.20
2020,04,12,01,01,3.20
2020,04,12,01,02,3.20
2020,04,12,01,03,3.20
2020,04,12,01,04,3.10
2020,04,12,01,05,3.10
2020,04,12,01,06,3.10
2020,04,12,01,07,3.10
2020,04,12,01,08,3.00
2020,04,12,01,09,3.00
2020,04,12,01,10,3.00
2020,04,12,01,11,3.00
2020,04,12,01,12,3.00
2020,04,12,01,13,2.90
2020,04,12,01,14,2.90
2020,04,12,01,15,2.90
2020,04,12,01,16,2.90
2020,04,12,01,17,2.90
2020,04,12,01,18,2.80
2020,04,12,01,19,2.80
2020,04,12,01,20,2.80
2020,04,12,01,21,2.80
2020,04,12,01,22,2.80
2020,04,12,01,23,2.70
2020,04,12,01,24,2.70
2020,04,12,01,25,2.70
2020,04,12,01,26,2.70
2020,04,12,01,27,2.70
2020,04,12,01,28,2.70
2020,04,12,01,29,2.70
2020,04,12,01,30,2.60
2020,04,12,01,31,2.60
2020,04,12,01,32,2.60
2020,04,12,01,33,2.60
2020,04,12,01,34,2.60
2020,04,12,01,35,2.60
2020,04,12,01,36,2.60
2020,04,12,01,37,2.60
2020,04,12,01,38,2.60
2020,04,12,01,39,2.60
2020,04,12,01,40,2.60
2020,04,12,01,41,2.60
2020,04,12,01,42,2.50
2020,04,12,01,43,2.50
2020,04,12,01,44,2.50
2020,04,12,01,45,2.50
2020,04,12,01,46,2.40
2020,04,12,01,47,2.40
2020,04,12,01,48,2.40
2020,04,12,01,49,2.40
2020,04,12,01,50,2.40
2020,04,12,01,51,2.40
2020,04,12,01,52,2.30
2020,04,12,01,53,2.30
2020,04,12,01,54,2.30
2020,04,12,01,55,2.30
2020,04,12,01,56,2.30
2020,04,12,01,57,2.30
2020,04,12,01,58,2.30
2020,04,12,01,59,2.30
2020,04,12,02,00,2.40
2020,04,12,02,01,2.40
2020,04,12,02,02,2.40
2020,04,12,02,03,2.40
2020,04,12,02,04,2.50
2020,04,12,02,05,2.50
2020,04,12,02,06,2.60
2020,04,12,02,07,2.60
2020,04,12,02,08,2.60
2020,04,12,02,09,2.60
2020,04,12,02,10,2.70
2020,04,12,02,11,2.70
2020,04,12,02,12,2.70
2020,04,12,02,13,2.80
2020,04,12,02,14,2.80
2020,04,12,02,15,2.80
2020,04,12,02,16,2.80
2020,04,12,02,17,2.90
2020,04,12,02,18,2.90
2020,04,12,02,19,2.90
2020,04,12,02,20,2.90
2020,04,12,02,21,3.00
2020,04,12,02,22,3.00
2020,04,12,02,23,3.00
2020,04,12,02,24,3.00
2020,04,12,02,25,3.00
2020,04,12,02,26,3.00
2020,04,12,02,27,3.10
2020,04,12,02,28,3.10
2020,04,12,02,29,3.10
2020,04,12,02,30,3.10
2020,04,12,02,31,3.10
2020,04,12,02,32,3.10
2020,04,12,02,33,3.10
2020,04,12,02,34,3.10
2020,04,12,02,35,3.10
2020,04,12,02,36,3.10
2020,04,12,02,37,3.10
2020,04,12,02,38,3.10
2020,04,12,02,39,3.10
2020,04,12,02,40,3.20
2020,04,12,02,41,3.20
2020,04,12,02,42,3.20
2020,04,12,02,43,3.20
2020,04,12,02,44,3.30
2020,04,12,02,45,3.30
2020,04,12,02,46,3.30
2020,04,12,02,47,3.30
2020,04,12,02,48,3.30
2020,04,12,02,49,3.40
2020,04,12,02,50,3.40
2020,04,12,02,51,3.40
2020,04,12,02,52,3.50
2020,04,12,02,53,3.50
2020,04,12,02,54,3.50
2020,04,12,02,55,3.60
2020,04,12,02,56,3.60
2020,04,12,02,57,3.60
2020,04,12,02,58,3.70
2020,04,12,02,59,3.70
2020,04,12,03,00,3.70
2020,04,12,03,01,3.70
2020,04,12,03,02,3.80
2020,04,12,03,03,3.80
2020,04,12,03,04,3.80
2020,04,12,03,05,3.90
2020,04,12,03,06,3.90
2020,04,12,03,07,3.90
2020,04,12,03,08,4.00
2020,04,12,03,09,4.00
2020,04,12,03,10,4.10
2020,04,12,03,11,4.10
2020,04,12,03,12,4.20
2020,04,12,03,13,4.30
2020,04,12,03,14,4.30
2020,04,12,03,15,4.40
2020,04,12,03,16,4.50
2020,04,12,03,17,4.50
2020,04,12,03,18,4.60
2020,04,12,03,19,4.60
2020,04,12,03,20,4.70
2020,04,12,03,21,4.70
2020,04,12,03,22,4.70
2020,04,12,03,23,4.70
2020,04,12,03,24,4.80
2020,04,12,03,25,4.80
2020,04,12,03,26,4.80
2020,04,12,03,27,4.80
2020,04,12,03,28,4.80
2020,04,12,03,29,4.90
2020,04,12,03,30,4.90
2020,04,12,03,31,4.90
2020,04,12,03,32,4.90
2020,04,12,03,33,4.90
2020,04,12,03,34,4.90
2020,04,12,03,35,5.00
2020,04,12,03,36,5.00
2020,04,12,03,37,5.00
2020,04,12,03,38,5.00
2020,04,12,03,39,5.00
2020,04,12,03,40,5.00
2020,04,12,03,41,5.10
2020,04,12,03,42,5.10
2020,04,12,03,43,5.10
2020,04,12,03,44,5.10
2020,04,12,03,45,5.10
2020,04,12,03,46,5.20
2020,04,12,03,47,5.20
2020,04,12,03,48,5.20
2020,04,12,03,49,5.20
2020,04,12,03,50,5.30
2020,04,12,03,51,5.30
2020,04,12,03,52,5.40
2020,04,12,03,53,5.50
2020,04,12,03,54,5.60
2020,04,12,03,55,5.60
2020,04,12,03,56,5.70
2020,04,12,03,57,5.80
2020,04,12,03,58,5.90
2020,04,12,03,59,6.00
2020,04,12,04,00,6.00
2020,04,12,04,01,6.10
2020,04,12,04,02,6.20
2020,04,12,04,03,6.20
2020,04,12,04,04,6.30
2020,04,12,04,05,6.40
2020,04,12,04,06,6.40
2020,04,12,04,07,6.40
2020,04,12,04,08,6.50
2020,04,12,04,09,6.50
2020,04,12,04,10,6.60
2020,04,12,04,11,6.60
2020,04,12,04,12,6.60
2020,04,12,04,13,6.70
2020,04,12,04,14,6.70
2020,04,12,04,15,6.70
2020,04,12,04,16,6.70
2020,04,12,04,17,6.70
2020,04,12,04,18,6.70
2020,04,12,04,19,6.70
2020,04,12,04,20,6.70
2020,04,12,04,21,6.80
2020,04,12,04,22,6.80
2020,04,12,04,23,6.80
2020,04,12,04,24,6.80
2020,04,12,04,25,6.80
2020,04,12,04,26,6.80
2020,04,12,04,27,6.80
2020,04,12,04,28,6.90
2020,04,12,04,29,6.90
2020,04,12,04,30,6.90
2020,04,12,04,31,6.90
2020,04,12,04,32,6.90
2020,04,12,04,33,7.00
2020,04,12,04,34,7.00
2020,04,12,04,35,7.00
2020,04,12,04,36,7.00
2020,04,12,04,37,7.00
2020,04,12,04,38,7.10
2020,04,12,04,39,7.10
2020,04,12,04,40,7.10
2020,04,12,04,41,7.10
2020,04,12,04,42,7.10
2020,04,12,04,43,7.10
2020,04,12,04,44,7.10
2020,04,12,04,45,7.10
2020,04,12,04,46,7.10
2020,04,12,04,47,7.10
2020,04,12,04,48,7.20
2020,04,12,04,49,7.20
2020,04,12,04,50,7.20
2020,04,12,04,51,7.30
2020,04,12,04,52,7.30
2020,04,12,04,53,7.30
2020,04,12,04,54,7.30
2020,04,12,04,55,7.30
2020,04,12,04,56,7.40
2020,04,12,04,57,7.40
2020,04,12,04,58,7.40
2020,04,12,04,59,7.40
2020,04,12,05,00,7.40
2020,04,12,05,01,7.40
2020,04,12,05,02,7.40
2020,04,12,05,03,7.40
2020,04,12,05,04,7.40
2020,04,12,05,05,7.40
2020,04,12,05,06,7.40
2020,04,12,05,07,7.40
2020,04,12,05,08,7.40
2020,04,12,05,09,7.40
2020,04,12,05,10,7.40
2020,04,12,05,11,7.40
2020,04,12,05,12,7.40
2020,04,12,05,13,7.40
2020,04,12,05,14,7.40
2020,04,12,05,15,7.40
2020,04,12,05,16,7.40
2020,04,12,05,17,7.40
2020,04,12,05,18,7.40
2020,04,12,05,19,7.40
2020,04,12,05,20,7.40
2020,04,12,05,21,7.40
2020,04,12,05,22,7.40
2020,04,12,05,23,7.40
2020,04,12,05,24,7.40
2020,04,12,05,25,7.40
2020,04,12,05,26,7.30
2020,04,12,05,27,7.30
2020,04,12,05,28,7.30
2020,04,12,05,29,7.30
2020,04,12,05,30,7.30
2020,04,12,05,31,7.30
2020,04,12,05,32,7.30
2020,04,12,05,33,7.30
2020,04,12,05,34,7.30
2020,04,12,05,35,7.30
2020,04,12,05,36,7.30
2020,04,12,05,37,7.30
2020,04,12,05,38,7.30
2020,04,12,05,39,7.30
2020,04,12,05,40,7.30
2020,04,12,05,41,7.30
2020,04,12,05,42,7.30
2020,04,12,05,43,7.30
2020,04,12,05,44,7.30
2020,04,12,05,45,7.30
2020,04,12,05,46,7.30
2020,04,12,05,47,7.30
2020,04,12,05,48,7.30
2020,04,12,05,49,7.30
2020,04,12,05,50,7.30
2020,04,12,05,51,7.20
2020,04,12,05,52,7.20
2020,04,12,05,53,7.30
2020,04,12,05,54,7.20
2020,04,12,05,55,7.20
2020,04,12,05,56,7.20
2020,04,12,05,57,7.20
2020,04,12,05,58,7.30
2020,04,12,05,59,7.30
2020,04,12,06,00,7.30
2020,04,12,06,01,7.30
2020,04,12,06,02,7.30
2020,04,12,06,03,7.30
2020,04,12,06,04,7.30
2020,04,12,06,05,7.30
2020,04,12,06,06,7.30
2020,04,12,06,07,7.30
2020,04,12,06,08,7.30
2020,04,12,06,09,7.30
2020,04,12,06,10,7.30
2020,04,12,06,11,7.30
2020,04,12,06,12,7.30
2020,04,12,06,13,7.30
2020,04,12,06,14,7.20
2020,04,12,06,15,7.20
2020,04,12,06,16,7.20
2020,04,12,06,17,7.20
2020,04,12,06,18,7.20
2020,04,12,06,19,7.10
2020,04,12,06,20,7.10
2020,04,12,06,21,7.10
2020,04,12,06,22,7.00
2020,04,12,06,23,7.00
2020,04,12,06,24,6.90
2020,04,12,06,25,6.80
2020,04,12,06,26,6.80
2020,04,12,06,27,6.80
2020,04,12,06,28,6.80
2020,04,12,06,29,6.70
2020,04,12,06,30,6.70
2020,04,12,06,31,6.60
2020,04,12,06,32,6.60
2020,04,12,06,33,6.60
2020,04,12,06,34,6.50
2020,04,12,06,35,6.40
2020,04,12,06,36,6.40
2020,04,12,06,37,6.40
2020,04,12,06,38,6.40
2020,04,12,06,39,6.40
2020,04,12,06,40,6.30
2020,04,12,06,41,6.30
2020,04,12,06,42,6.30
2020,04,12,06,43,6.30
2020,04,12,06,44,6.30
2020,04,12,06,45,6.30
2020,04,12,06,46,6.30
2020,04,12,06,47,6.30
2020,04,12,06,48,6.30
2020,04,12,06,49,6.30
2020,04,12,06,50,6.20
2020,04,12,06,51,6.20
2020,04,12,06,52,6.20
2020,04,12,06,53,6.20
2020,04,12,06,54,6.20
2020,04,12,06,55,6.20
2020,04,12,06,56,6.20
2020,04,12,06,57,6.20
2020,04,12,06,58,6.20
2020,04,12,06,59,6.20
2020,04,12,07,00,6.20
2020,04,12,07,01,6.20
2020,04,12,07,02,6.20
2020,04,12,07,03,6.20
2020,04,12,07,04,6.20
2020,04,12,07,05,6.20
2020,04,12,07,06,6.30
2020,04,12,07,07,6.30
2020,04,12,07,08,6.30
2020,04,12,07,09,6.30
2020,04,12,07,10,6.30
2020,04,12,07,11,6.30
2020,04,12,07,12,6.30
2020,04,12,07,13,6.30
2020,04,12,07,14,6.30
2020,04,12,07,15,6.30
2020,04,12,07,16,6.30
2020,04,12,07,17,6.30
2020,04,12,07,18,6.40
2020,04,12,07,19,6.40
2020,04,12,07,20,6.40
2020,04,12,07,21,6.40
2020,04,12,07,22,6.40
2020,04,12,07,23,6.40
2020,04,12,07,24,6.40
2020,04,12,07,25,6.40
2020,04,12,07,26,6.40
2020,04,12,07,27,6.50
2020,04,12,07,28,6.50
2020,04,12,07,29,6.50
2020,04,12,07,30,6.60
2020,04,12,07,31,6.60
2020,04,12,07,32,6.60
2020,04,12,07,33,6.60
2020,04,12,07,34,6.60
2020,04,12,07,35,6.70
2020,04,12,07,36,6.70
2020,04,12,07,37,6.70
2020,04,12,07,38,6.70
2020,04,12,07,39,6.80
2020,04,12,07,40,6.80
2020,04,12,07,41,6.80
2020,04,12,07,42,6.80
2020,04,12,07,43,6.80
2020,04,12,07,44,6.80
2020,04,12,07,45,6.90
2020,04,12,07,46,6.90
2020,04,12,07,47,7.00
2020,04,12,07,48,7.00
2020,04,12,07,49,7.10
2020,04,12,07,50,7.20
2020,04,12,07,51,7.20
2020,04,12,07,52,7.30
2020,04,12,07,53,7.30
2020,04,12,07,54,7.40
2020,04,12,07,55,7.40
2020,04,12,07,56,7.40
2020,04,12,07,57,7.50
2020,04,12,07,58,7.60
2020,04,12,07,59,7.60
2020,04,12,08,00,7.60
2020,04,12,08,01,7.70
2020,04,12,08,02,7.70
2020,04,12,08,03,7.70
2020,04,12,08,04,7.80
2020,04,12,08,05,7.80
2020,04,12,08,06,7.80
2020,04,12,08,07,7.90
2020,04,12,08,08,7.90
2020,04,12,08,09,7.90
2020,04,12,08,10,7.90
2020,04,12,08,11,8.00
2020,04,12,08,12,8.00
2020,04,12,08,13,8.00
2020,04,12,08,14,8.10
2020,04,12,08,15,8.10
2020,04,12,08,16,8.10
2020,04,12,08,17,8.20
2020,04,12,08,18,8.20
2020,04,12,08,19,8.20
2020,04,12,08,20,8.30
2020,04,12,08,21,8.30
2020,04,12,08,22,8.40
2020,04,12,08,23,8.40
2020,04,12,08,24,8.50
2020,04,12,08,25,8.50
2020,04,12,08,26,8.60
2020,04,12,08,27,8.60
2020,04,12,08,28,8.70
2020,04,12,08,29,8.70
2020,04,12,08,30,8.80
2020,04,12,08,31,8.80
2020,04,12,08,32,8.90
2020,04,12,08,33,8.90
2020,04,12,08,34,9.00
2020,04,12,08,35,9.10
2020,04,12,08,36,9.10
2020,04,12,08,37,9.10
2020,04,12,08,38,9.20
2020,04,12,08,39,9.20
2020,04,12,08,40,9.30
2020,04,12,08,41,9.30
2020,04,12,08,42,9.30
2020,04,12,08,43,9.40
2020,04,12,08,44,9.40
2020,04,12,08,45,9.40
2020,04,12,08,46,9.40
2020,04,12,08,47,9.50
2020,04,12,08,48,9.50
2020,04,12,08,49,9.60
2020,04,12,08,50,9.60
2020,04,12,08,51,9.60
2020,04,12,08,52,9.70
2020,04,12,08,53,9.70
2020,04,12,08,54,9.80
2020,04,12,08,55,9.80
2020,04,12,08,56,9.90
2020,04,12,08,57,9.90
2020,04,12,08,58,10.00
2020,04,12,08,59,10.00
2020,04,12,09,00,10.10
2020,04,12,09,01,10.10
2020,04,12,09,02,10.10
2020,04,12,09,03,10.10
2020,04,12,09,04,10.10
2020,04,12,09,05,10.20
2020,04,12,09,06,10.20
2020,04,12,09,07,10.20
2020,04,12,09,08,10.20
2020,04,12,09,09,10.20
2020,04,12,09,10,10.20
2020,04,12,09,11,10.20
2020,04,12,09,12,10.20
2020,04,12,09,13,10.20
2020,04,12,09,14,10.20
2020,04,12,09,15,10.30
2020,04,12,09,16,10.30
2020,04,12,09,17,10.30
2020,04,12,09,18,10.30
2020,04,12,09,19,10.30
2020,04,12,09,20,10.30
2020,04,12,09,21,10.30
2020,04,12,09,22,10.30
2020,04,12,09,23,10.40
2020,04,12,09,24,10.40
2020,04,12,09,25,10.40
2020,04,12,09,26,10.40
2020,04,12,09,27,10.40
2020,04,12,09,28,10.40
2020,04,12,09,29,10.50
2020,04,12,09,30,10.50
2020,04,12,09,31,10.50
2020,04,12,09,32,10.50
2020,04,12,09,33,10.50
2020,04,12,09,34,10.50
2020,04,12,09,35,10.50
2020,04,12,09,36,10.50
2020,04,12,09,37,10.50
2020,04,12,09,38,10.50
2020,04,12,09,39,10.50
2020,04,12,09,40,10.50
2020,04,12,09,41,10.50
2020,04,12,09,42,10.50
2020,04,12,09,43,10.50
2020,04,12,09,44,10.50
2020,04,12,09,45,10.60
2020,04,12,09,46,10.60
2020,04,12,09,47,10.60
2020,04,12,09,48,10.60
2020,04,12,09,49,10.60
2020,04,12,09,50,10.70
2020,04,12,09,51,10.70
2020,04,12,09,52,10.70
2020,04,12,09,53,10.70
2020,04,12,09,54,10.80
2020,04,12,09,55,10.90
2020,04,12,09,56,10.90
2020,04,12,09,57,10.90
2020,04,12,09,58,11.00
2020,04,12,09,59,11.00
2020,04,12,10,00,11.00
2020,04,12,10,01,11.00
2020,04,12,10,02,11.00
2020,04,12,10,03,11.00
2020,04,12,10,04,11.10
2020,04,12,10,05,11.10
2020,04,12,10,06,11.10
2020,04,12,10,07,11.10
2020,04,12,10,08,11.10
2020,04,12,10,09,11.20
2020,04,12,10,10,11.20
2020,04,12,10,11,11.10
2020,04,12,10,12,11.20
2020,04,12,10,13,11.20
2020,04,12,10,14,11.20
2020,04,12,10,15,11.30
2020,04,12,10,16,11.30
2020,04,12,10,17,11.40
2020,04,12,10,18,11.40
2020,04,12,10,19,11.40
2020,04,12,10,20,11.40
2020,04,12,10,21,11.50
2020,04,12,10,22,11.50
2020,04,12,10,23,11.50
2020,04,12,10,24,11.50
2020,04,12,10,25,11.50
2020,04,12,10,26,11.50
2020,04,12,10,27,11.50
2020,04,12,10,28,11.60
2020,04,12,10,29,11.60
2020,04,12,10,30,11.60
2020,04,12,10,31,11.60
2020,04,12,10,32,11.70
2020,04,12,10,33,11.70
2020,04,12,10,34,11.70
2020,04,12,10,35,11.70
2020,04,12,10,36,11.70
2020,04,12,10,37,11.70
2020,04,12,10,38,11.70
2020,04,12,10,39,11.70
2020,04,12,10,40,11.80
2020,04,12,10,41,11.80
2020,04,12,10,42,11.80
2020,04,12,10,43,11.80
2020,04,12,10,44,11.80
2020,04,12,10,45,11.80
2020,04,12,10,46,11.80
2020,04,12,10,47,11.90
2020,04,12,10,48,11.90
2020,04,12,10,49,12.00
2020,04,12,10,50,12.00
2020,04,12,10,51,12.00
2020,04,12,10,52,12.00
2020,04,12,10,53,12.00
2020,04,12,10,54,12.00
2020,04,12,10,55,12.10
2020,04,12,10,56,12.10
2020,04,12,10,57,12.10
2020,04,12,10,58,12.10
2020,04,12,10,59,12.20
2020,04,12,11,00,12.20
2020,04,12,11,01,12.30
2020,04,12,11,02,12.30
2020,04,12,11,03,12.30
2020,04,12,11,04,12.30
2020,04,12,11,05,12.40
2020,04,12,11,06,12.40
2020,04,12,11,07,12.40
2020,04,12,11,08,12.40
2020,04,12,11,09,12.50
2020,04,12,11,10,12.50
2020,04,12,11,11,12.50
2020,04,12,11,12,12.50
2020,04,12,11,13,12.50
2020,04,12,11,14,12.50
2020,04,12,11,15,12.50
2020,04,12,11,16,12.50
2020,04,12,11,17,12.50
2020,04,12,11,18,12.50
2020,04,12,11,19,12.60
2020,04,12,11,20,12.60
2020,04,12,11,21,12.60
2020,04,12,11,22,12.60
2020,04,12,11,23,12.60
2020,04,12,11,24,12.60
2020,04,12,11,25,12.50
2020,04,12,11,26,12.50
2020,04,12,11,27,12.50
2020,04,12,11,28,12.40
2020,04,12,11,29,12.40
2020,04,12,11,30,12.40
2020,04,12,11,31,12.30
2020,04,12,11,32,12.20
2020,04,12,11,33,12.20
2020,04,12,11,34,12.20
2020,04,12,11,35,12.20
2020,04,12,11,36,12.20
2020,04,12,11,37,12.30
2020,04,12,11,38,12.40
2020,04,12,11,39,12.40
2020,04,12,11,40,12.50
2020,04,12,11,41,12.60
2020,04,12,11,42,12.70
2020,04,12,11,43,12.80
2020,04,12,11,44,12.90
2020,04,12,11,45,13.00
2020,04,12,11,46,13.00
2020,04,12,11,47,13.10
2020,04,12,11,48,13.10
2020,04,12,11,49,13.20
2020,04,12,11,50,13.20
2020,04,12,11,51,13.30
2020,04,12,11,52,13.30
2020,04,12,11,53,13.40
2020,04,12,11,54,13.40
2020,04,12,11,55,13.50
2020,04,12,11,56,13.60
2020,04,12,11,57,13.60
2020,04,12,11,58,13.70
2020,04,12,11,59,13.80
2020,04,12,12,00,13.80
2020,04,12,12,01,13.80
2020,04,12,12,02,13.90
2020,04,12,12,03,13.90
2020,04,12,12,04,13.90
2020,04,12,12,05,14.00
2020,04,12,12,06,14.00
2020,04,12,12,07,13.90
2020,04,12,12,08,13.80
2020,04,12,12,09,13.80
2020,04,12,12,10,13.80
2020,04,12,12,11,13.70
2020,04,12,12,12,13.70
2020,04,12,12,13,13.70
2020,04,12,12,14,13.70
2020,04,12,12,15,13.60
2020,04,12,12,16,13.60
2020,04,12,12,17,13.60
2020,04,12,12,18,13.60
2020,04,12,12,19,13.60
2020,04,12,12,20,13.60
2020,04,12,12,21,13.60
2020,04,12,12,22,13.60
2020,04,12,12,23,13.70
2020,04,12,12,24,13.70
2020,04,12,12,25,13.80
2020,04,12,12,26,13.80
2020,04,12,12,27,13.80
2020,04,12,12,28,13.90
2020,04,12,12,29,13.90
2020,04,12,12,30,13.90
2020,04,12,12,31,13.90
2020,04,12,12,32,13.90
2020,04,12,12,33,13.90
2020,04,12,12,34,14.00
2020,04,12,12,35,14.00
2020,04,12,12,36,14.00
2020,04,12,12,37,14.10
2020,04,12,12,38,14.10
2020,04,12,12,39,14.10
2020,04,12,12,40,14.10
2020,04,12,12,41,14.00
2020,04,12,12,42,13.90
2020,04,12,12,43,13.80
2020,04,12,12,44,13.70
2020,04,12,12,45,13.60
2020,04,12,12,46,13.60
2020,04,12,12,47,13.50
2020,04,12,12,48,13.50
2020,04,12,12,49,13.50
2020,04,12,12,50,13.50
2020,04,12,12,51,13.60
2020,04,12,12,52,13.60
2020,04,12,12,53,13.70
2020,04,12,12,54,13.70
2020,04,12,12,55,13.70
2020,04,12,12,56,13.70
2020,04,12,12,57,13.80
2020,04,12,12,58,13.80
2020,04,12,12,59,13.80
2020,04,12,13,00,13.90
2020,04,12,13,01,14.00
2020,04,12,13,02,14.00
2020,04,12,13,03,14.00
2020,04,12,13,04,14.00
2020,04,12,13,05,13.90
2020,04,12,13,06,13.80
2020,04,12,13,07,13.80
2020,04,12,13,08,13.90
2020,04,12,13,09,13.90
2020,04,12,13,10,13.90
2020,04,12,13,11,14.00
2020,04,12,13,12,14.00
2020,04,12,13,13,14.00
2020,04,12,13,14,13.90
2020,04,12,13,15,13.90
2020,04,12,13,16,13.90
2020,04,12,13,17,13.90
2020,04,12,13,18,13.90
2020,04,12,13,19,14.00
2020,04,12,13,20,14.00
2020,04,12,13,21,14.10
2020,04,12,13,22,14.10
2020,04,12,13,23,14.00
2020,04,12,13,24,14.00
2020,04,12,13,25,14.00
2020,04,12,13,26,14.10
2020,04,12,13,27,14.10
2020,04,12,13,28,14.20
2020,04,12,13,29,14.30
2020,04,12,13,30,14.30
2020,04,12,13,31,14.40
2020,04,12,13,32,14.50
2020,04,12,13,33,14.60
2020,04,12,13,34,14.70
2020,04,12,13,35,14.70
2020,04,12,13,36,14.80
2020,04,12,13,37,14.80
2020,04,12,13,38,14.80
2020,04,12,13,39,14.80
2020,04,12,13,40,14.80
2020,04,12,13,41,14.80
2020,04,12,13,42,14.70
2020,04,12,13,43,14.70
2020,04,12,13,44,14.70
2020,04,12,13,45,14.80
2020,04,12,13,46,14.80
2020,04,12,13,47,14.90
2020,04,12,13,48,14.90
2020,04,12,13,49,14.90
2020,04,12,13,50,14.90
2020,04,12,13,51,14.80
2020,04,12,13,52,14.70
2020,04,12,13,53,14.70
2020,04,12,13,54,14.50
2020,04,12,13,55,14.50
2020,04,12,13,56,14.40
2020,04,12,13,57,14.50
2020,04,12,13,58,14.50
2020,04,12,13,59,14.50
2020,04,12,14,00,14.60
2020,04,12,14,01,14.70
2020,04,12,14,02,14.80
2020,04,12,14,03,14.80
2020,04,12,14,04,14.90
2020,04,12,14,05,15.00
2020,04,12,14,06,15.10
2020,04,12,14,07,15.10
2020,04,12,14,08,15.10
2020,04,12,14,09,15.10
2020,04,12,14,10,15.10
2020,04,12,14,11,15.00
2020,04,12,14,12,14.90
2020,04,12,14,13,14.90
2020,04,12,14,14,14.80
2020,04,12,14,15,14.70
2020,04,12,14,16,14.70
2020,04,12,14,17,14.70
2020,04,12,14,18,14.70
2020,04,12,14,19,14.80
2020,04,12,14,20,14.90
2020,04,12,14,21,14.90
2020,04,12,14,22,14.90
2020,04,12,14,23,14.80
2020,04,12,14,24,14.70
2020,04,12,14,25,14.60
2020,04,12,14,26,14.60
2020,04,12,14,27,14.50
2020,04,12,14,28,14.50
2020,04,12,14,29,14.40
2020,04,12,14,30,14.40
2020,04,12,14,31,14.40
2020,04,12,14,32,14.50
2020,04,12,14,33,14.40
2020,04,12,14,34,14.40
2020,04,12,14,35,14.50
2020,04,12,14,36,14.50
2020,04,12,14,37,14.60
2020,04,12,14,38,14.60
2020,04,12,14,39,14.70
2020,04,12,14,40,14.70
2020,04,12,14,41,14.70
2020,04,12,14,42,14.70
2020,04,12,14,43,14.60
2020,04,12,14,44,14.60
2020,04,12,14,45,14.60
2020,04,12,14,46,14.60
2020,04,12,14,47,14.60
2020,04,12,14,48,14.60
2020,04,12,14,49,14.70
2020,04,12,14,50,14.80
2020,04,12,14,51,14.90
2020,04,12,14,52,14.90
2020,04,12,14,53,15.00
2020,04,12,14,54,15.10
2020,04,12,14,55,15.20
2020,04,12,14,56,15.20
2020,04,12,14,57,15.30
2020,04,12,14,58,15.40
2020,04,12,14,59,15.30
2020,04,12,15,00,15.30
2020,04,12,15,01,15.30
2020,04,12,15,02,15.20
2020,04,12,15,03,15.20
2020,04,12,15,04,15.20
2020,04,12,15,05,15.30
2020,04,12,15,06,15.30
2020,04,12,15,07,15.40
2020,04,12,15,08,15.50
2020,04,12,15,09,15.60
2020,04,12,15,10,15.60
2020,04,12,15,11,15.70
2020,04,12,15,12,15.80
2020,04,12,15,13,15.80
2020,04,12,15,14,15.80
2020,04,12,15,15,15.80
2020,04,12,15,16,15.80
2020,04,12,15,17,15.70
2020,04,12,15,18,15.70
2020,04,12,15,19,15.70
2020,04,12,15,20,15.70
2020,04,12,15,21,15.70
2020,04,12,15,22,15.70
2020,04,12,15,23,15.70
2020,04,12,15,24,15.80
2020,04,12,15,25,15.80
2020,04,12,15,26,15.80
2020,04,12,15,27,15.80
2020,04,12,15,28,15.80
2020,04,12,15,29,15.80
2020,04,12,15,30,15.80
2020,04,12,15,31,15.80
2020,04,12,15,32,15.80
2020,04,12,15,33,15.80
2020,04,12,15,34,15.90
2020,04,12,15,35,15.90
2020,04,12,15,36,16.00
2020,04,12,15,37,16.10
2020,04,12,15,38,16.10
2020,04,12,15,39,16.20
2020,04,12,15,40,16.20
2020,04,12,15,41,16.30
2020,04,12,15,42,16.30
2020,04,12,15,43,16.40
2020,04,12,15,44,16.40
2020,04,12,15,45,16.40
2020,04,12,15,46,16.50
2020,04,12,15,47,16.50
2020,04,12,15,48,16.60
2020,04,12,15,49,16.60
2020,04,12,15,50,16.60
2020,04,12,15,51,16.70
2020,04,12,15,52,16.60
2020,04,12,15,53,16.50
2020,04,12,15,54,16.50
2020,04,12,15,55,16.40
2020,04,12,15,56,16.30
2020,04,12,15,57,16.30
2020,04,12,15,58,16.30
2020,04,12,15,59,16.30
2020,04,12,16,00,16.30
2020,04,12,16,01,16.30
2020,04,12,16,02,16.30
2020,04,12,16,03,16.30
2020,04,12,16,04,16.30
2020,04,12,16,05,16.30
2020,04,12,16,06,16.30
2020,04,12,16,07,16.30
2020,04,12,16,08,16.30
2020,04,12,16,09,16.30
2020,04,12,16,10,16.30
2020,04,12,16,11,16.30
2020,04,12,16,12,16.30
2020,04,12,16,13,16.30
2020,04,12,16,14,16.30
2020,04,12,16,15,16.30
2020,04,12,16,16,16.30
2020,04,12,16,17,16.30
2020,04,12,16,18,16.30
2020,04,12,16,19,16.40
2020,04,12,16,20,16.40
2020,04,12,16,21,16.40
2020,04,12,16,22,16.40
2020,04,12,16,23,16.50
2020,04,12,16,24,16.50
2020,04,12,16,25,16.60
2020,04,12,16,26,16.60
2020,04,12,16,27,16.60
2020,04,12,16,28,16.60
2020,04,12,16,29,16.60
2020,04,12,16,30,16.60
2020,04,12,16,31,16.60
2020,04,12,16,32,16.60
2020,04,12,16,33,16.70
2020,04,12,16,34,16.70
2020,04,12,16,35,16.80
2020,04,12,16,36,16.80
2020,04,12,16,37,16.90
2020,04,12,16,38,16.90
2020,04,12,16,39,16.90
2020,04,12,16,40,17.00
2020,04,12,16,41,17.00
2020,04,12,16,42,17.00
2020,04,12,16,43,17.00
2020,04,12,16,44,17.00
2020,04,12,16,45,17.00
2020,04,12,16,46,17.00
2020,04,12,16,47,17.00
2020,04,12,16,48,17.00
2020,04,12,16,49,17.00
2020,04,12,16,50,16.90
2020,04,12,16,51,16.90
2020,04,12,16,52,17.00
2020,04,12,16,53,17.00
2020,04,12,16,54,17.00
2020,04,12,16,55,17.00
2020,04,12,16,56,17.00
2020,04,12,16,57,17.00
2020,04,12,16,58,17.00
2020,04,12,16,59,16.90
2020,04,12,17,00,16.90
2020,04,12,17,01,16.80
2020,04,12,17,02,16.70
2020,04,12,17,03,16.60
2020,04,12,17,04,16.50
2020,04,12,17,05,16.40
2020,04,12,17,06,16.40
2020,04,12,17,07,16.30
2020,04,12,17,08,16.30
2020,04,12,17,09,16.30
2020,04,12,17,10,16.30
2020,04,12,17,11,16.30
2020,04,12,17,12,16.30
2020,04,12,17,13,16.30
2020,04,12,17,14,16.40
2020,04,12,17,15,16.40
2020,04,12,17,16,16.40
2020,04,12,17,17,16.40
2020,04,12,17,18,16.40
2020,04,12,17,19,16.40
2020,04,12,17,20,16.40
2020,04,12,17,21,16.40
2020,04,12,17,22,16.40
2020,04,12,17,23,16.40
2020,04,12,17,24,16.50
2020,04,12,17,25,16.50
2020,04,12,17,26,16.50
2020,04,12,17,27,16.50
2020,04,12,17,28,16.50
2020,04,12,17,29,16.40
2020,04,12,17,30,16.40
2020,04,12,17,31,16.40
2020,04,12,17,32,16.30
2020,04,12,17,33,16.30
2020,04,12,17,34,16.30
2020,04,12,17,35,16.30
2020,04,12,17,36,16.30
2020,04,12,17,37,16.30
2020,04,12,17,38,16.30
2020,04,12,17,39,16.30
2020,04,12,17,40,16.30
2020,04,12,17,41,16.30
2020,04,12,17,42,16.30